This is the latest recevied weather packets stored in our database for station/object W1RCY. If no packets are shown the sender has not sent any weather packets the latest 10 day(s).
| Time | Temp. | Humidity | Pressure | Rain* | Wind** | Luminosity | Snow |
|---|---|---|---|---|---|---|---|
| 1777733257 | 7.78° C | 94% | 1010.8 hPa | 0 mm | - | 188 W/m² | - |
| 1777732954 | 7.78° C | 94% | 1010.7 hPa | 0 mm | - | 183 W/m² | - |
| 1777732650 | 7.78° C | 95% | 1010.8 hPa | 0 mm | - | 190 W/m² | - |
| 1777732348 | 7.78° C | 95% | 1010.5 hPa | 0 mm | - | 178 W/m² | - |
| 1777732045 | 7.78° C | 95% | 1010.7 hPa | 0 mm | - | 140 W/m² | - |
| 1777731742 | 7.78° C | 95% | 1010.7 hPa | 0 mm | - | 155 W/m² | - |
| 1777731439 | 7.78° C | 95% | 1010.9 hPa | 0 mm | - | 203 W/m² | - |
| 1777731137 | 7.78° C | 96% | 1010.7 hPa | 0 mm | - | 351 W/m² | - |
| 1777730835 | 7.22° C | 96% | 1010.7 hPa | 0 mm | - | 219 W/m² | - |
| 1777730532 | 7.22° C | 95% | 1010.7 hPa | 1.78 mm | - | 200 W/m² | - |
| 1777730228 | 6.67° C | 95% | 1010.9 hPa | 1.78 mm | - | 102 W/m² | - |
| 1777729925 | 6.67° C | 95% | 1010.9 hPa | 0 mm | - | 115 W/m² | - |
| 1777729621 | 7.22° C | 95% | 1011.1 hPa | 0 mm | - | 129 W/m² | - |
| 1777729318 | 6.67° C | 95% | 1010.9 hPa | 0 mm | - | 121 W/m² | - |
| 1777729014 | 6.67° C | 96% | 1010.7 hPa | 0 mm | - | 89 W/m² | - |
| 1777728711 | 7.22° C | 96% | 1011 hPa | 0 mm | - | 137 W/m² | - |
| 1777728408 | 6.67° C | 96% | 1010.8 hPa | 0 mm | - | 229 W/m² | - |
| 1777728105 | 6.67° C | 96% | 1011.1 hPa | 0 mm | - | 154 W/m² | - |
| 1777727802 | 6.67° C | 97% | 1010.8 hPa | 0 mm | - | 138 W/m² | - |
| 1777727499 | 6.67° C | 96% | 1011.1 hPa | 0 mm | - | 127 W/m² | - |
| 1777727197 | 6.11° C | 97% | 1011 hPa | 0 mm | - | 140 W/m² | - |
| 1777726894 | 6.11° C | 97% | 1011.2 hPa | 0 mm | - | 205 W/m² | - |
| 1777726590 | 6.11° C | 97% | 1011.2 hPa | 0 mm | - | 213 W/m² | - |
| 1777726288 | 5.56° C | 97% | 1011.2 hPa | 0 mm | - | 168 W/m² | - |
| 1777725984 | 5.56° C | 97% | 1011.3 hPa | 1.27 mm | - | 91 W/m² | - |
* Rain latest hour (hover to see other rain measurements)
** Current wind speed in m/s (hover to see current wind gust speed)